Regional Weather Roundup
Issued by NWS Sterling, VA

Home | Current Version | Previous Version | Graphics & Text | Print | Product List | Glossary On
Versions: 1 2 3 4 5 6 7 8 9 10 11 12 13 14 15 16 17 18 19 20 21 22 23 24 25 26 27
000
ASUS41 KLWX 190710
RWRLWX

REGIONAL WEATHER ROUNDUP
NATIONAL WEATHER SERVICE BALTIMORE MD/WASHINGTON DC
200 AM EST SUN FEB 19 2017

Note: "FAIR" indicates few or no clouds below 12,000 feet
with no significant weather and/or obstructions to visibility.
 TC=TEMPERATURE CELSIUS

 * =Non NWS site. Station does not report precipitation (e.g. rain,
    snow, etc.), thunder, or fog.

DCZ001-MDZ009-015-VAZ040>042-051-053>054-190800-
WASHINGTON METRO

CITY           SKY/WX    TMP DP  RH WIND       PRES   REMARKS
WASHINGTON NAT CLOUDY    56  38  50 S6        29.80R
DULLES         CLOUDY    53  40  61 N3        29.79F
ANDREWS AFB    DRIZZLE   59  34  38 W7        29.78F
FT BELVOIR     LGT RAIN  51  41  68 CALM      29.79F
QUANTICO       LGT RAIN  52  46  80 N5        29.80S
COLLEGE PARK*  CLOUDY    50  37  62 CALM      29.79S
LEESBURG*      CLOUDY    59  41  51 CALM      29.80S
MANASSAS*      LGT RAIN  59  42  53 N3        29.79S
GAITHERSBURG*  CLOUDY    54  32  43 CALM      29.84S

$$

MDZ006>007-011-014-190800-
BALTIMORE METRO

CITY           SKY/WX    TMP DP  RH WIND       PRES   REMARKS
BWI AIRPORT    CLOUDY    59  34  39 W6        29.79R
MD SCIENCE CTR   N/A     62  31  31 MISG      29.79R
ANNAPOLIS      CLOUDY    50  39  66 CALM      29.77S
FORT MEADE*    CLOUDY    48  37  66 CALM      29.81S

$$

MDZ012-015-019>023-190800-
MARYLAND EASTERN SHORE

CITY           SKY/WX    TMP DP  RH WIND       PRES   REMARKS
OCEAN CITY     CLOUDY    58  36  43 W6        29.79R
SALISBURY      CLOUDY    58  36  43 W6        29.78S
BAY BRIDGE AP* CLOUDY    57  34  41 W5        29.78R
CAMBRIDGE*     CLOUDY    54  36  50 SE3       29.78R
EASTON*        CLOUDY    57  33  40 NW3       29.81F

$$

MDZ017>025-190800-
SOUTHERN MARYLAND

CITY           SKY/WX    TMP DP  RH WIND       PRES   REMARKS
PATUXENT RIVER CLOUDY    59  35  40 SW9       29.77F
ST INIGOES     CLOUDY    59  35  40 W5        29.77F
LEONARDTOWN*   CLOUDY    59  32  36 SW3       29.80R

$$

MDZ003>005-190800-
NORTH CENTRAL MARYLAND

CITY           SKY/WX    TMP DP  RH WIND       PRES   REMARKS
FREDERICK*     MOCLDY    55  37  50 S5        29.82S
HAGERSTOWN APT CLOUDY    58  39  49 W5        29.80R
WESTMINSTER*   CLOUDY    61  36  39 W8        29.79R

$$

MDZ501>502-190800-
WESTERN MARYLAND

CITY           SKY/WX    TMP DP  RH WIND       PRES   REMARKS
OAKLAND*       CLOUDY    43  37  81 W7G18     29.87R
CUMBERLAND*    CLOUDY    59  41  51 W8        29.88R

$$

VAZ025>031-190800-
SHENANDOAH VALLEY

CITY           SKY/WX    TMP DP  RH WIND       PRES   REMARKS
WINCHESTER*    DRIZZLE   59  39  47 SW5       29.81R
FRONT ROYAL*   CLOUDY    55  43  62 CALM      29.81S
LURAY*         DRIZZLE   52  46  82 SE3       29.83R
NEW MARKET*    CLOUDY    48  41  75 SW6       29.83R
STAUNTON*      CLOUDY    51  42  71 CALM      29.85S
WAYNESBORO*    CLOUDY    55  35  46 W6        29.83F

$$

WVZ021-048>050-054>055-190800-
EASTERN WEST VIRGINIA PANHANDLE

CITY           SKY/WX    TMP DP  RH WIND       PRES   REMARKS
MARTINSBURG    MOCLDY    59  37  44 SW3       29.80S
PETERSBURG*    DRIZZLE   59  46  62 W8        29.85S

$$

VAZ036>039-050-190800-
CENTRAL FOOTHILLS

CITY           SKY/WX    TMP DP  RH WIND       PRES   REMARKS
CHARLOTTESVILL CLOUDY    63  35  35 W3        29.80S
CULPEPER*      RAIN      55  43  63 S3        29.82R
ORANGE*        CLOUDY    54  39  58 CALM      29.81S
GORDONSVILLE*  CLOUDY    56  38  49 CALM      29.79S
WARRENTON*     DRIZZLE   56  38  49 S9        29.81R

$$

VAZ055>057-190800-
NORTH AND CENTRAL PIEDMONT

CITY           SKY/WX    TMP DP  RH WIND       PRES   REMARKS
FREDERICKSBRG* MOCLDY    57  41  55 SE6       29.80R
STAFFORD*      RAIN      52  45  77 NW3       29.84R

$$

NCZ024-NYZ072-PAZ021-071-VAZ022-071-190800-
OTHER REGIONAL OBSERVATIONS

CITY           SKY/WX    TMP DP  RH WIND       PRES   REMARKS
NEW YORK CITY  CLOUDY    59  31  34 W7        29.70R
PHILADELPHIA   CLOUDY    50  37  61 W5        29.76R
PITTSBURGH     CLOUDY    50  43  77 SW7       29.84S
ROANOKE        MOCLDY    52  34  50 W6        29.89S
RICHMOND       CLOUDY    55  37  50 S9        29.82S
RALEIGH        PTCLDY    51  43  74 SW8       29.92S

$$

ANZ530>537-190800-
MARINE OBSERVATIONS

STATION/POSITION TIME  TEMP    WIND        PRES
                       AIR SEA DIR/SP/G
                 (UTC) (F)     (DEG/KT/KT) (MB)
THOMAS PT LIGHT  0700   62 40  310/  7/  8   N/A
BALT KEY BRIDGE  0648   60     250/  5/  6 1008.4R
COVE POINT       0648   59     200/  3/  5 1008.9R
LEWISETTA        0648   61 43  240/  9/ 11 1008.4F
SOLOMONS ISLAND  0648   56 42  230/  8/ 13   N/A
PINEY POINT      0648          280/  6/  7   N/A

$$





USA.gov is the U.S. government's official web portal to all federal, state and local government web resources and services.